User: anonymous   Login
Location: Moena
(46.3667°N, 11.6500°E)
Time: 16:04:53
(UTC+00:00)
Language:

Cosmos 2333 Rocket - Orbit

View from above orbital plane
View from above orbital plane
View from above satellite
View from above satellite

Ground track
Ground track

The orbit data is extracted from the following two-line orbital elements,

1 24298U 96051B   21207.10933750 -.00000182  00000-0 -72228-4 0  9994
2 24298  70.8279 139.4094 0013756 119.4228 240.8267 14.12431469283613
Epoch (UTC): 26 July 2021 02:37:26
Eccentricity: 0.0013756
inclination: 70.8279°
perigee height: 841 km
apogee height: 861 km
right ascension of ascending node: 139.4094°
argument of perigee: 119.4228°
revolutions per day: 14.12431469
mean anomaly at epoch: 240.8267°
orbit number at epoch: 28361

The dashed part of the orbit path shows where the satellite is in the earth's shadow,  

DLR